Location: Unspecified
(50.0830°N, 0.0000°E)
Time: 04:32:44
(UTC+00:00)

Envisat - Visible Passes

Search period start: 20 November 2019 00:00
Search period end: 30 November 2019 00:00
Orbit: 764 x 766 km, 98.1° (Epoch: 19 November)

Date Brightness Start Highest point End Pass type
(mag) Time Alt. Az. Time Alt. Az. Time Alt. Az.
20 Nov 6.2 05:25:18 10° ENE 05:27:33 13° E 05:29:47 10° ESE visible
20 Nov 3.8 16:43:29 10° ESE 16:47:45 28° ENE 16:52:02 10° N visible
20 Nov 3.9 18:21:38 10° S 18:26:33 49° W 18:31:30 10° NNW visible
21 Nov 4.5 06:25:40 10° NNE 06:30:29 41° E 06:35:17 10° SSE visible
21 Nov 2.9 17:44:37 10° SSE 17:49:42 84° ENE 17:54:49 10° NNW visible
21 Nov 5.9 19:26:26 10° WSW 19:29:24 15° W 19:32:23 10° NW visible
22 Nov 5.8 05:49:34 10° NE 05:53:24 21° E 05:57:13 10° SE visible
22 Nov 3.3 17:08:17 10° SE 17:13:03 43° ENE 17:17:51 10° N visible
22 Nov 4.8 18:47:45 10° SSW 18:52:13 30° W 18:56:42 10° NNW visible
23 Nov 6.5 05:15:50 10° E 05:16:05 10° E 05:16:20 10° E visible
23 Nov 3.5 18:10:13 10° S 18:15:14 61° W 18:20:17 10° NNW visible
24 Nov 4.9 06:14:31 10° NNE 06:19:09 34° E 06:23:44 10° SSE visible
24 Nov 2.9 17:33:25 10° SSE 17:38:26 69° ENE 17:43:31 10° N visible
24 Nov 5.6 19:14:25 10° SW 19:17:59 19° W 19:21:35 10° NW visible
25 Nov 5.9 05:38:40 10° NE 05:42:00 17° E 05:45:18 10° SE visible
25 Nov 3.5 16:57:15 10° SE 17:01:51 36° ENE 17:06:28 10° N visible
25 Nov 4.5 18:36:10 10° SSW 18:40:51 37° W 18:45:35 10° NNW visible
26 Nov 3.9 06:39:47 10° NNE 06:44:47 55° E 06:49:46 10° S visible
26 Nov 3.2 17:58:51 10° S 18:03:56 75° WSW 18:09:03 10° NNW visible
26 Nov 6.2 19:42:16 10° WSW 19:43:51 11° W 19:45:27 10° WNW visible
27 Nov 5.3 06:03:26 10° NE 06:07:47 28° E 06:12:06 10° SSE visible
27 Nov 3.0 17:22:14 10° SSE 17:27:12 56° ENE 17:32:11 10° N visible
27 Nov 5.3 19:02:34 10° SW 19:06:35 23° W 19:10:37 10° NW visible
28 Nov 6.1 05:27:57 10° NE 05:30:33 14° E 05:33:10 10° ESE visible
28 Nov 3.8 16:46:17 10° ESE 16:50:39 30° ENE 16:55:02 10° N visible
28 Nov 4.1 18:24:39 10° S 18:29:31 45° W 18:34:25 10° NNW visible
29 Nov 4.3 06:28:35 10° NNE 06:33:28 45° E 06:38:18 10° S visible
29 Nov 2.9 17:47:33 10° SSE 17:52:39 90° NE 17:57:46 10° NNW visible
29 Nov 5.9 19:29:44 10° WSW 19:32:24 14° W 19:35:06 10° NW visible
